KTIW

Details ICAO KTIW (TIW)
Name TACOMA NARROWS
Region United States
Timezone America/Los_Angeles (UTC-7.0)
Plans Departing 82
Arriving 51
Stats Elevation 292 ft / 89 m (AMSL)
Location 47.267930° -122.578113°
Runways 1
Magnetic Variation 15.615° E
Sunrise 2018-06-24 12:16:07 UTC / 2018-06-24 05:16:07 Local
Sunset 2018-06-25 04:11:52 UTC / 2018-06-24 21:11:52 Local
Advertisement - Login to hide

Runways

ID Width Length Bearing (true) Bearing (mag) Surface Threshold Offset Overrun Length
17 150 ft / 46 m 5,004 ft / 1,525 m 186.99° 171.37° Asphalt 0 ft / 0 m 0 ft / 0 m
35 150 ft / 46 m 5,004 ft / 1,525 m 6.99° 351.37° Asphalt 0 ft / 0 m 0 ft / 0 m

Approach Navaids

Runway Type Ident Frequency Range Bearing (true) Bearing (mag) Slope Elevation
17 Localiser ITIW 109.10 MHz 18 nm / 33 km 186.99° 171.37° - 292 ft / 89 m (AMSL)
17 Glidescope ITIW 109.10 MHz 10 nm / 19 km 186.99° 171.37° 3.00° 292 ft / 89 m (AMSL)

Map

Weather


0- 5 10 15 20 25 30 35+ Temperature / ° C

Clouds and Precipitation
Forecast for 2018-06-25 06:00 UTC. Updated 3 hours ago

Ground ~20,000 ft ~40,000 ft Winds

METAR

KTIW 250553Z AUTO 02004KT 10SM BKN070 OVC085 17/08 A2995 RMK AO2 SLP140 T01670078 10233 20167 53041

TAF

Not found

Frequencies

Recorded 124.05 MHz ATIS
Unicom 122.95 MHz UNICOM
Tower 118.50 MHz TWR
Unicom 118.50 MHz CTAF
Ground 121.80 MHz GND
Approach 120.10 MHz SEATTLE APP/DEP
Warning: Do not use this data for real-world aviation or navigation. No guarantee of current accuracy is given.